Track STARLINK-3890 now! 10-day predictions STARLINK-3890 is classified as:
1 52455U 22049E 22187.25001157 -.00028092 00000-0 -17530-2 0 9990 2 52455 53.2147 335.5512 0001149 71.4866 122.7030 15.08858396 9610